Powrót do katalogu

STARLINK-1525

AktywnyŁącznośćVLEO
NORAD 46066·PAYLOAD·🇺🇸 United States

Wystrzelony Aug 7, 2020 z Cape Canaveral Space Force Station

Loading…

Następne Przeloty (najbliższe 24 godziny)

TLE

ŚwieżeSource: CelesTrak SupGP

Epoka: Sep 14, 2026, 20:15 UTC

1 46066C 20055AR  26257.84423611  .00208530  00000+0  23009-2 0  2575
2 46066  53.0436 280.1234 0011701  37.0015 229.4534 15.62245264    18

Śledź STARLINK-1525 w czasie rzeczywistym z AllMySat

Download on the App Store